Location: Newark
(45.5000°N, 11.4167°E)
Time: 01:43:21
(UTC+00:00)

Transit 4A - Visible Passes

Search period start: 22 August 2019 00:00
Search period end: 01 September 2019 00:00
Orbit: 863 x 981 km, 66.8° (Epoch: 21 August)

Date Brightness Start Highest point End Pass type
(mag) Time Alt. Az. Time Alt. Az. Time Alt. Az.
22 Aug 9.5 00:59:23 10° NNW 01:04:59 33° NE 01:10:25 10° ESE visible
22 Aug 7.9 02:45:39 10° NW 02:51:42 57° WSW 02:57:33 10° SSE visible
22 Aug 10.6 19:43:13 10° WNW 19:47:45 20° NNW 19:52:16 10° NNE visible
22 Aug 10.7 23:23:04 10° N 23:26:25 15° NNE 23:29:45 10° NE visible
23 Aug 9.0 01:08:37 10° NNW 01:14:35 44° NE 01:20:19 10° ESE visible
23 Aug 8.3 02:55:13 10° NW 03:00:54 39° WSW 03:06:23 10° S visible
23 Aug 10.7 19:53:47 10° WNW 19:57:36 16° NNW 20:01:24 10° N visible
23 Aug 10.4 23:32:12 10° NNW 23:36:18 18° NNE 23:40:21 10° ENE visible
24 Aug 8.4 01:17:54 10° NNW 01:24:04 60° NE 01:30:01 10° SE visible
24 Aug 8.7 03:04:58 10° NW 03:10:00 27° WSW 03:14:54 10° SSW visible
24 Aug 10.7 20:04:32 10° NW 20:07:33 13° NNW 20:10:31 10° N visible
24 Aug 10.9 21:56:12 10° N 21:57:05 10° N 21:57:57 10° NNE visible
24 Aug 10.1 23:41:21 10° NNW 23:46:07 22° NE 23:50:46 10° E visible
25 Aug 7.9 01:27:13 10° NNW 01:33:29 82° ENE 01:38:43 14° SE visible
25 Aug 9.2 03:15:05 10° WNW 03:19:02 18° WSW 03:21:51 13° SW visible
25 Aug 10.8 20:15:26 10° NW 20:17:32 12° NNW 20:19:36 10° N visible
25 Aug 10.7 22:05:12 10° N 22:07:07 11° NNE 22:09:01 10° NNE visible
25 Aug 9.7 23:50:32 10° NNW 23:55:51 28° NE 00:01:00 10° E visible
26 Aug 7.7 01:36:38 10° NW 01:42:49 71° WSW 01:44:19 51° S visible
26 Aug 9.6 03:26:09 10° W 03:27:40 11° W 03:27:40 11° W visible
26 Aug 10.4 18:33:37 10° W 18:38:32 23° NW 18:43:26 10° NNE visible
26 Aug 10.9 20:26:30 10° NNW 20:27:34 10° N 20:28:36 10° N visible
26 Aug 10.5 22:14:18 10° N 22:17:07 13° NNE 22:19:53 10° NE visible
26 Aug 9.2 23:59:46 10° NNW 00:05:29 36° NE 00:08:05 26° E visible
27 Aug 8.1 01:46:08 10° NW 01:51:28 48° W 01:51:28 48° W visible
27 Aug 10.5 18:44:04 10° WNW 18:48:20 18° NNW 18:52:36 10° NNE visible
27 Aug 10.4 22:23:25 10° N 22:27:02 16° NNE 22:30:36 10° ENE visible
28 Aug 8.6 00:09:01 10° NNW 00:15:03 49° NE 00:15:46 46° ENE visible
28 Aug 9.0 01:55:46 10° NW 01:59:11 27° WNW 01:59:11 27° WNW visible
28 Aug 10.5 18:54:42 10° WNW 18:58:13 15° NNW 19:01:43 10° N visible
28 Aug 10.1 22:32:33 10° NNW 22:36:54 19° NNE 22:40:20 13° ENE visible
29 Aug 8.2 00:18:18 10° NNW 00:23:46 61° NNE 00:23:46 61° NNE visible
29 Aug 9.7 02:05:37 10° NW 02:07:12 16° WNW 02:07:12 16° WNW visible
29 Aug 10.6 19:05:31 10° NW 19:08:10 13° NNW 19:10:49 10° N visible
29 Aug 10.6 20:56:31 10° N 20:57:45 11° N 20:58:58 10° NNE visible
29 Aug 9.7 22:41:43 10° NNW 22:46:40 24° NE 22:48:32 21° ENE visible
30 Aug 8.6 00:27:39 10° NNW 00:31:59 47° NW 00:31:59 47° NW visible
30 Aug 10.7 19:16:29 10° NNW 19:18:11 11° NNW 19:19:52 10° N visible
30 Aug 10.5 21:05:32 10° N 21:07:46 12° NNE 21:09:58 10° NE visible
30 Aug 9.3 22:50:55 10° NNW 22:56:22 30° NE 22:56:52 30° NE visible
31 Aug 9.1 00:37:05 10° NW 00:40:20 32° NW 00:40:20 32° NW visible
31 Aug 10.8 19:27:48 10° N 19:28:14 10° N 19:28:39 10° N visible
31 Aug 10.3 21:14:38 10° N 21:17:44 14° NNE 21:20:47 10° NE visible
31 Aug 9.0 23:00:08 10° NNW 23:05:20 39° NNE 23:05:20 39° NNE visible
